STARLINK-34050, 64331

Orbit data source: Space-Track

STARLINK-34050, 64331 is a payload satellite owned by SpaceX/Seattle (US) in LEO that was launched on Tue, 10 Jun 2025 UTC via an FALCON 9 launch vehicle from the Air Force Eastern Test Range (AFETR). Payload-class satellites include a variety of spacecraft equipped with specific instruments for various scientific and technological missions. These include communications satellites like Starlink; space stations such as the ISS; scientific satellites like the Hubble; Earth observation satellites from companies like Planet Labs, Umbra, and HawkEye 360; GPS; miniature CubeSats for education and research; and military/defense satellites.

Loading next visibility...
Identifier
64331, 2025-124Q
Orbit
LEO
Country
Flag of USUS
Related business
Manufacturer
SpaceX/Seattle
Mission
Operational Commercial Communications
Bus & Motor
STARLINK V2MO, Unknown motor
Mass
575 kg wet, ~530 kg dry
Launch date (UTC)
2025-06-10 (10 months ago)
Launch vehicle
FALCON 9
Launch site
Air Force Eastern Test Range (AFETR)
Object type
Payload
Rocket body
Debris
Shape & HBR
Box + 2 Pan, 17.7 m
Radar Cross Section
36.964 m², Large (>1 m²)

Expand to show TLE details & history
Last TLE update: 15 hours ago

TLE from 15 hours ago
0 STARLINK-34050
1 64331U 25124Q   26101.92999892  .00013970  00000-0  51626-3 0  9991
2 64331  43.0028 294.0288 0001604 262.5713  97.4956 15.27577808 47928
Epoch: 2026-04-11T22:19Z
TLE epoch observation values (Epoch: 2026-04-11T22:19:11.906Z)
Latitude
-0.00006°
Longitude
119.08688°
Altitude
482.975 km
Speed
7.626 km/s
True Right ascension
19h 36m 06s
True Declination
0° 00' 00"
Sunlit
Object was in daylight at epoch
Visualization orbit readout
Latitude
Unknown
Longitude
Unknown
Altitude
Unknown
Speed
Unknown
Apparent Right ascension
Unknown
Apparent Declination
Unknown
Sunlit
N/A
Visualization observer readout
Local Sidereal Time
20:05:35
Azimuth
Unknown
Elevation
Unknown
Doppler factor
Unknown
Orbital elements
Apogee altitude
486.101 km
Perigee altitude
483.9 km
Semi-major axis
6,863.137 km
Eccentricity
0.00016
Inclination
43.0028°
RAAN
294.0288°
Arg. of periapsis
262.5713°
True anomaly
97.51382°
Mean anomaly
97.4956°
Eccentric anomaly
97.50471°
Mean motion
3.81732 °/min
Orbital period
94.31 mins
BSTAR
0.00051626
Loading maneuver chart data...
Computing Atmospheric mass density...
Loading historical data...
Loading historical data...
Loading historical data...
Loading historical data...
Loading historical data...
Loading historical data...
Loading historical data...

Documentation

Showing up to 5 results
|